Voltar ao catálogo

FENGYUN 1C DEB

AtivoSSO
NORAD 30172·DEBRIS·🇨🇳 China

Lançado May 10, 1999 de Taiyuan Satellite Launch Center

Loading…

Próximas Passagens (próximas 24 horas)

TLE

AtualizadoSource: Space-Track

Época: Sep 14, 2026, 10:31 UTC

1 30172U 99025UD  26257.43882801  .00001451  00000-0  77314-3 0  9990
2 30172  99.2540 250.5948 0068582 148.0009   8.6351 14.13857184  4119

Acompanhe FENGYUN 1C DEB em tempo real com AllMySat

Download on the App Store